Weather History for Torrington, WY

Change the Weather History Date:

Saturday, December 1, 2012

  Actual Average Record
Temperature  
Mean Temperature 51 °F 29 °F  
Max Temperature 61 °F 42 °F 65 °F (1998)
Min Temperature 41 °F 16 °F 5 °F (2004)
Degree Days  
Heating Degree Days 14 36  
Month to date heating degree days 14 36  
Since 1 July heating degree days 1357 1619  
Cooling Degree Days 0 0  
Month to date cooling degree days 0 0  
Year to date cooling degree days 1021 678  
Growing Degree Days 2 (Base 50)    
Moisture  
Dew Point 29 °F    
Average Humidity 42    
Maximum Humidity 57    
Minimum Humidity 27    
Precipitation  
Precipitation 0.00 in 0.01 in 0.06 in (2005)
Month to date precipitation 0.00 0.01  
Year to date precipitation 7.00 13.85  
Sea Level Pressure  
Sea Level Pressure 29.82 in    
Wind  
Wind Speed 12 mph (West)    
Max Wind Speed 36 mph    
Max Gust Speed 46 mph    
Visibility 10 miles    
Events      
T = Trace of Precipitation, MM = Missing Value Source: NWS Daily Summary

Daily Weather History Graph

Daily Weather History Graph

Search for Another Location

Airport:

Trip Planner

Search our weather history database for the weather conditions in past years. The results will help you decide how hot, cold, wet, or windy it might be!

Date:

Astronomy

Dec. 01, 2012 Rise Set
Actual Time 7:05 AM MST 4:25 PM MST
Civil Twilight 6:34 AM MST 4:56 PM MST
Nautical Twilight 5:59 AM MST 5:31 PM MST
Astronomical Twilight 5:26 AM MST 6:05 PM MST
Moon 7:18 PM MST (12/1) 9:19 AM MST (12/1)
Length of Visible Light 10h 22m
Length of Day
9h 19m
Waning Gibbous, 91% of the Moon is Illuminated
Dec 1
Waning Gibbous
Dec 6
Last Quarter
Dec 13
New
Dec 19
First Quarter
Dec 28
Full

Hourly Weather History & Observations

Time (MST) Temp. Windchill Dew Point Humidity Pressure Visibility Wind Dir Wind Speed Gust Speed Precip Events Conditions
12:53 AM 48.9 °F - 27.0 °F 43% 29.72 in 10.0 mi West 10.4 mph - N/A   Clear
1:53 AM 55.0 °F - 28.9 °F 37% 29.71 in 10.0 mi West 19.6 mph 27.6 mph N/A   Scattered Clouds
2:53 AM 54.0 °F - 30.0 °F 40% 29.74 in 10.0 mi WNW 11.5 mph - N/A   Partly Cloudy
3:53 AM 50.0 °F - 30.0 °F 46% 29.77 in 10.0 mi WNW 4.6 mph - N/A   Scattered Clouds
4:34 AM 46.4 °F 40.4 °F 30.2 °F 53% 29.84 in 10.0 mi NNW 13.8 mph 19.6 mph N/A   Clear
5:53 AM 48.9 °F - 30.9 °F 50% 29.79 in 10.0 mi West 10.4 mph - N/A   Clear
6:53 AM 46.0 °F 42.5 °F 30.0 °F 54% 29.83 in 10.0 mi SSW 6.9 mph - N/A   Clear
8:53 AM 57.0 °F - 30.9 °F 37% 29.81 in 10.0 mi West 21.9 mph 36.8 mph N/A   Clear
9:53 AM 60.1 °F - 30.9 °F 33% 29.81 in 10.0 mi West 26.5 mph 35.7 mph N/A   Clear
10:53 AM 60.1 °F - 30.0 °F 32% 29.81 in 10.0 mi West 29.9 mph 44.9 mph N/A   Clear
11:53 AM 60.1 °F - 28.9 °F 31% 29.78 in 10.0 mi West 12.7 mph 25.3 mph N/A   Clear
12:53 PM 61.0 °F - 27.0 °F 27% 29.79 in 10.0 mi West 21.9 mph 31.1 mph N/A   Clear
1:53 PM 60.1 °F - 26.1 °F 27% 29.78 in 10.0 mi WNW 11.5 mph - N/A   Clear
2:53 PM 60.1 °F - 27.0 °F 28% 29.80 in 10.0 mi West 10.4 mph 20.7 mph N/A   Clear
3:53 PM 57.9 °F - 28.0 °F 32% 29.83 in 10.0 mi Calm Calm - N/A   Clear
4:53 PM 55.0 °F - 28.0 °F 35% 29.84 in 10.0 mi WNW 8.1 mph - N/A   Clear
5:53 PM 55.9 °F - 30.0 °F 37% 29.85 in 10.0 mi West 12.7 mph - N/A   Clear
6:53 PM 52.0 °F - 28.9 °F 41% 29.90 in 10.0 mi West 6.9 mph - N/A   Clear
7:53 PM 48.0 °F - 28.9 °F 48% 29.89 in 10.0 mi WSW 8.1 mph - N/A   Clear
8:53 PM 48.9 °F - 30.0 °F 48% 29.87 in 10.0 mi WSW 8.1 mph - N/A   Clear
9:53 PM 43.0 °F 38.2 °F 28.0 °F 56% 29.87 in 10.0 mi SSW 8.1 mph - N/A   Clear
10:53 PM 48.9 °F - 25.0 °F 39% 29.86 in 10.0 mi South 3.5 mph - N/A   Clear
11:53 PM 45.0 °F 40.1 °F 25.0 °F 46% 29.88 in 10.0 mi WSW 9.2 mph - N/A   Clear